Norfolk, NE

4:32 AM CST on January 24, 2017 (GMT -0600)
Stefan Memorial

Weather History for KOFK - February, 2012

Change the Weather History Date:

Monday, February 13, 2012

  Actual Average Record
Temperature  
Mean Temperature 22 °F 26 °F  
Max Temperature 30 °F 36 °F 70 °F (1934)
Min Temperature 14 °F 16 °F -29 °F (1905)
Degree Days  
Heating Degree Days 43 39  
Month to date heating degree days 522 523  
Since 1 July heating degree days 4101 4545  
Cooling Degree Days 0 0  
Month to date cooling degree days 0 0  
Year to date cooling degree days 0 0  
Moisture  
Dew Point 20 °F    
Average Humidity 78    
Maximum Humidity 96    
Minimum Humidity 60    
Precipitation  
Precipitation 0.11 in 0.03 in 1.50 in (1919)
Month to date precipitation 0.50 0.33  
Year to date precipitation 0.68 0.92  
Snow  
Snow 1.30 in 0.20 in - ()
Month to date snowfall 3.1 2.8  
Since 1 July snowfall 13.3 20.1  
Snow Depth 1.00 in    
Sea Level Pressure  
Sea Level Pressure 29.79 in    
Wind  
Wind Speed 8 mph (SSW)    
Max Wind Speed 22 mph    
Max Gust Speed 28 mph    
Visibility 4 miles    
Events Fog , Snow    
T = Trace of Precipitation, MM = Missing Value Source: NWS Daily Summary

Daily Weather History Graph

Daily Weather History Graph

Search for Another Location

Airport or City:

Trip Planner

Search our weather history database for the weather conditions in past years. The results will help you decide how hot, cold, wet, or windy it might be!

Date:

Astronomy

Feb. 13, 2012 Rise Set
Actual Time 7:28 AM CST 5:59 PM CST
Civil Twilight 7:00 AM CST 6:28 PM CST
Nautical Twilight 6:27 AM CST 7:01 PM CST
Astronomical Twilight 5:54 AM CST 7:33 PM CST
Moon 12:05 AM CST (2/13) 10:20 AM CST (2/13)
Length of Visible Light 11h 28m
Length of Day
10h 30m
Waning Gibbous, 61% of the Moon is Illuminated
Feb 13
Waning Gibbous
Feb 14
Last Quarter
Feb 21
New
Feb 29
First Quarter
Mar 8
Full

Hourly Weather History & Observations

Time (CST) Temp. Windchill Dew Point Humidity Pressure Visibility Wind Dir Wind Speed Gust Speed Precip Events Conditions
12:56 AM 23.0 °F 11.1 °F 17.1 °F 78% 30.00 in 3.0 mi South 12.7 mph 21.9 mph 0.00 in Snow Light Snow
1:03 AM 21.2 °F 8.3 °F 17.6 °F 86% 29.93 in 1.8 mi South 13.8 mph - 0.00 in Snow Light Snow
1:07 AM 21.2 °F 7.8 °F 17.6 °F 86% 29.93 in 1.2 mi South 15.0 mph - 0.00 in Snow Light Snow
1:28 AM 21.2 °F 7.8 °F 17.6 °F 86% 29.92 in 0.5 mi South 15.0 mph - 0.02 in Fog , Snow Snow
1:43 AM 21.2 °F 9.5 °F 17.6 °F 86% 29.91 in 1.0 mi South 11.5 mph - 0.04 in Snow Light Snow
1:56 AM 21.9 °F 10.4 °F 18.0 °F 85% 29.97 in 1.8 mi South 11.5 mph - 0.05 in Snow Light Snow
2:05 AM 21.2 °F 10.1 °F 17.6 °F 86% 29.90 in 2.5 mi SSE 10.4 mph - 0.01 in Snow Light Snow
2:21 AM 21.2 °F 10.9 °F 17.6 °F 86% 29.89 in 3.0 mi SSE 9.2 mph - 0.01 in Snow Light Snow
2:41 AM 21.2 °F 10.1 °F 17.6 °F 86% 29.88 in 2.0 mi SSE 10.4 mph - 0.01 in Snow Light Snow
2:49 AM 21.2 °F 9.5 °F 17.6 °F 86% 29.88 in 1.2 mi SSE 11.5 mph - 0.01 in Snow Light Snow
2:56 AM 21.9 °F 11.0 °F 18.0 °F 85% 29.94 in 1.2 mi SSE 10.4 mph - 0.02 in Snow Light Snow
3:14 AM 21.2 °F 9.5 °F 17.6 °F 86% 29.87 in 3.0 mi SSE 11.5 mph - 0.00 in Snow Light Snow
3:56 AM 21.9 °F 11.0 °F 18.0 °F 85% 29.91 in 10.0 mi SSE 10.4 mph - 0.00 in   Overcast
4:56 AM 23.0 °F 11.7 °F 19.0 °F 85% 29.89 in 10.0 mi SSE 11.5 mph - N/A   Overcast
5:16 AM 23.0 °F 11.7 °F 19.4 °F 86% 29.82 in 10.0 mi SSE 11.5 mph - N/A   Overcast
5:56 AM 23.0 °F 12.4 °F 19.9 °F 88% 29.88 in 4.0 mi South 10.4 mph - N/A   Overcast
6:56 AM 24.1 °F 13.1 °F 21.0 °F 88% 29.85 in 4.0 mi South 11.5 mph - 0.00 in Snow Light Snow
7:09 AM 24.8 °F 14.0 °F 21.2 °F 86% 29.78 in 2.5 mi South 11.5 mph - 0.01 in Snow Light Snow
7:31 AM 24.8 °F 14.6 °F 21.2 °F 86% 29.78 in 4.0 mi South 10.4 mph - 0.01 in Snow Light Snow
7:38 AM 24.8 °F 14.6 °F 21.2 °F 86% 29.78 in 6.0 mi South 10.4 mph - 0.01 in Snow Light Snow
7:56 AM 24.1 °F 13.7 °F 21.0 °F 88% 29.83 in 3.0 mi South 10.4 mph - 0.01 in   Overcast
8:56 AM 25.0 °F 14.8 °F 23.0 °F 92% 29.82 in 4.0 mi South 10.4 mph - N/A   Overcast
9:56 AM 26.1 °F 16.2 °F 24.1 °F 92% 29.81 in 6.0 mi South 10.4 mph - 0.01 in   Overcast
10:56 AM 27.0 °F 16.1 °F 24.1 °F 89% 29.80 in 7.0 mi South 12.7 mph - N/A   Overcast
11:56 AM 28.0 °F 19.3 °F 24.1 °F 85% 29.79 in 10.0 mi SSW 9.2 mph - 0.00 in   Overcast
12:56 PM 28.9 °F 21.1 °F 24.1 °F 82% 29.76 in 10.0 mi SW 8.1 mph - N/A   Overcast
1:24 PM 28.4 °F 20.4 °F 24.8 °F 86% 29.70 in 10.0 mi SW 8.1 mph - N/A   Overcast
1:56 PM 30.0 °F 24.1 °F 24.1 °F 79% 29.75 in 10.0 mi SW 5.8 mph - N/A   Overcast
2:18 PM 30.2 °F 22.6 °F 23.0 °F 75% 29.68 in 10.0 mi West 8.1 mph - N/A   Overcast
2:48 PM 30.2 °F 24.3 °F 24.8 °F 80% 29.68 in 6.0 mi WSW 5.8 mph - 0.00 in Snow Light Snow
2:56 PM 30.0 °F 24.1 °F 24.1 °F 79% 29.74 in 2.5 mi West 5.8 mph - 0.00 in Snow Light Snow
3:11 PM 28.4 °F 22.2 °F 24.8 °F 86% 29.68 in 1.0 mi West 5.8 mph - 0.00 in Snow Light Snow
3:21 PM 28.4 °F 22.2 °F 24.8 °F 86% 29.68 in 0.8 mi WSW 5.8 mph - 0.01 in Snow Light Snow
3:33 PM 28.4 °F 23.3 °F 24.8 °F 86% 29.69 in 1.0 mi SW 4.6 mph - 0.01 in Snow Light Snow
3:56 PM 28.9 °F 25.2 °F 25.0 °F 85% 29.74 in 1.5 mi WSW 3.5 mph - 0.01 in Snow Light Snow
4:23 PM 28.4 °F 23.3 °F 24.8 °F 86% 29.68 in 3.0 mi WSW 4.6 mph - 0.01 in Snow Light Snow
4:34 PM 28.4 °F 24.6 °F 24.8 °F 86% 29.68 in 5.0 mi SW 3.5 mph - 0.01 in Snow Light Snow
4:56 PM 28.9 °F 23.9 °F 25.0 °F 85% 29.74 in 3.0 mi SW 4.6 mph - 0.01 in Snow Light Snow
5:18 PM 28.4 °F 23.3 °F 24.8 °F 86% 29.69 in 10.0 mi SW 4.6 mph - 0.00 in   Overcast
5:51 PM 28.4 °F 23.3 °F 24.8 °F 86% 29.69 in 10.0 mi SW 4.6 mph - 0.00 in   Overcast
5:52 PM 28.0 °F 22.8 °F 24.1 °F 85% 29.75 in 10.0 mi SW 4.6 mph - 0.00 in   Mostly Cloudy
6:56 PM 23.0 °F 17.0 °F 21.0 °F 92% 29.76 in 7.0 mi SW 4.6 mph - N/A   Clear
7:56 PM 19.9 °F 12.1 °F 18.0 °F 92% 29.78 in 3.0 mi SW 5.8 mph - N/A   Clear
8:04 PM 19.4 °F 11.5 °F 17.6 °F 93% 29.71 in 2.5 mi SW 5.8 mph - N/A   Clear
8:14 PM 17.6 °F 9.3 °F 15.8 °F 93% 29.71 in 3.0 mi SW 5.8 mph - N/A   Clear
8:56 PM 19.0 °F 10.0 °F 15.1 °F 85% 29.79 in 6.0 mi SW 6.9 mph - N/A   Clear
9:22 PM 19.4 °F - 15.8 °F 86% 29.72 in 1.8 mi Calm Calm - N/A   Clear
9:35 PM 19.4 °F - 15.8 °F 86% 29.72 in 0.5 mi Calm Calm - N/A Fog Light Freezing Fog
9:56 PM 18.0 °F - 14.0 °F 84% 29.79 in 1.0 mi Calm Calm - N/A   Clear
10:21 PM 17.6 °F - 15.8 °F 93% 29.73 in 0.5 mi Calm Calm - N/A Fog Light Freezing Fog
10:30 PM 15.8 °F - 12.2 °F 86% 29.73 in 0.2 mi Calm Calm - N/A Fog Light Freezing Fog
10:53 PM 15.8 °F - 12.2 °F 86% 29.73 in 0.5 mi Calm Calm - N/A Fog Light Freezing Fog
10:56 PM 16.0 °F - 12.0 °F 84% 29.80 in 0.8 mi Calm Calm - N/A   Mist
11:14 PM 17.6 °F - 12.2 °F 79% 29.73 in 0.2 mi Calm Calm - N/A Fog Light Freezing Fog
11:56 PM 14.0 °F - 10.0 °F 84% 29.80 in 0.2 mi Calm Calm - N/A Fog Light Freezing Fog